User: anonymous   Login
Location: Newark
(40.9833°N, 0.0333°W)
Time: 00:51:49
(UTC+00:00)
Language:

Altair - Orbit

View from above orbital plane
View from above orbital plane
View from above satellite
View from above satellite

Ground track
Ground track

The orbit data is extracted from the following two-line orbital elements,

1    50U 60009B   20300.51721913 -.00000042 +00000-0 +40996-3 0  9992
2    50 047.2321 074.4906 0113165 356.2896 003.7046 12.20112785686225
Epoch (UTC): 26 October 2020 12:24:47
Eccentricity: 0.0113165
inclination: 47.2321°
perigee height: 1502 km
apogee height: 1682 km
right ascension of ascending node: 74.4906°
argument of perigee: 356.2896°
revolutions per day: 12.20112785
mean anomaly at epoch: 3.7046°
orbit number at epoch: 68622

The dashed part of the orbit path shows where the satellite is in the earth's shadow,  

DLR